Location: Beaurecueil
(43.5122°N, 5.5450°E)
Time: 00:53:12
(UTC+00:00)

USA 238 - Pass Details

Date: 18 September 2020
Orbit: 1006 x 1206 km, 63.4° (Epoch: 25 October)

Event Time Altitude Azimuth Distance (km) Brightness Sun altitude
Rises 19:32:57 0° 324° (NW) 3,945 7.7 -20.4°
Reaches altitude 10° 19:35:37 10° 327° (NNW) 3,013 6.8 -20.8°
Maximum altitude 19:42:50 69° 50° (NE) 1,240 3.9 -22.0°
Enters shadow 19:45:44 40° 121° (ESE) 1,677 4.2 -22.5°
